Regional Weather Roundup
Issued by NWS

Home | Current Version | Previous Version | Graphics & Text | Print | Product List | Glossary On
Versions: 1 2 3 4 5 6 7 8 9 10 11 12 13 14 15 16 17 18 19 20 21 22 23 24 25 26 27 28 29 30 31 32 33 34 35 36 37 38 39 40 41 42 43 44 45 46 47 48 49 50
000
ASUS43 KLOT 102210
RWRIL

ILLINOIS REGIONAL WEATHER ROUNDUP
NATIONAL WEATHER SERVICE CHICAGO/ROMEOVILLE IL
500 PM CDT THU JUL 10 2014

NOTE: "FAIR" INDICATES FEW OR NO CLOUDS BELOW 12,000 FEET WITH NO
SIGNIFICANT WEATHER AND/OR OBSTRUCTIONS TO VISIBILITY.

* THESE STATIONS ARE NOT UNDER NWS QUALITY CONTROL. THEY ALSO MAY NOT
  REPORT WEATHER SUCH AS PRECIPITATION OR FOG.

ILZ001-002-007-009-015-016-024-102300-
NORTHWEST ILLINOIS

CITY           SKY/WX    TMP DP  RH WIND       PRES   REMARKS
MOLINE         SUNNY     81  58  45 S7        30.10F HX  81
STERLING*      MOSUNNY   81  61  50 S5        30.13S HX  81
SAVANNA*       SUNNY     80  58  47 SE9       30.11F HX  80
$$

ILZ003-004-008-010-011-017-018-102300-
NORTH CENTRAL ILLINOIS

CITY           SKY/WX    TMP DP  RH WIND       PRES   REMARKS
ROCKFORD       MOSUNNY   80  58  46 S9        30.14S HX  80
FREEPORT*      PTSUNNY   76  59  55 SE6       30.15F
ROCHELLE*      PTSUNNY   79  56  45 CALM      30.14S HX  80
DE KALB*       MOSUNNY   77  55  46 E5        30.15F
PERU*          PTSUNNY   78  54  42 CALM      30.14S
$$

ILZ005-006-012>014-019>023-102300-
NORTHEAST ILLINOIS

CITY           SKY/WX    TMP DP  RH WIND       PRES   REMARKS
CHICAGO-OHARE  MOSUNNY   76  52  43 E12       30.14F
CHICAGO-MIDWAY MOSUNNY   76  53  44 E14       30.14F
AURORA         SUNNY     79  53  40 VRB6      30.14S
LANSING*       SUNNY     74  49  40 E8        30.15F
JOLIET*        PTSUNNY   77  55  47 SE7       30.14S
WAUKEGAN       SUNNY     70  55  59 E8        30.15F
DUPAGE AIRPORT MOSUNNY   78  55  44 CALM      30.13F
KANKAKEE*      MOSUNNY   77  58  51 E6        30.15R
WHEELING       SUNNY     74  53  48 E8        30.16F
MORRIS*        SUNNY     79  56  44 CALM      30.13S HX  80
ROMEOVILLE*    SUNNY     77  56  48 E8        30.14R
NORTHERLY ISL    N/A     70  57  63 E10         N/A
$$

LMZ740>746-102300-
SOUTHERN LAKE MICHIGAN

STATION/POSITION SKY/WX   TEMP    WIND        PRES    VSBY  WAVE
                          AIR SEA DIR/SP/G                  HT/PER
                          (F)     (DEG/KT/KT) (MB)    (MI)  (FT/S)
SOUTHERN BUOY              64 62  120/  2/  4 1021.7F         0
WAUKEGAN HARBOR            68     130/  8/  9 1022.4S
HARRISON CRIB              67      90/ 12/ 13   N/A
BURNHAM HARBOR             70      90/  9/ 10   N/A
CALUMET HARBOR             69      70/ 10/ 12 1022.0S
MICHIGAN CITY              68      20/  8/ 10   N/A
$$

ILZ025>027-034>036-040-047-049-050-058-095>099-102300-
WEST-CENTRAL ILLINOIS

CITY           SKY/WX    TMP DP  RH WIND       PRES   REMARKS
QUINCY         MOSUNNY   80  54  40 SE8       30.10F HX  80
GALESBURG*     SUNNY     82  60  46 SE5       30.12F HX  82
MACOMB*        SUNNY     80  57  45 SE6       30.14S HX  80
JACKSONVILLE*  SUNNY     82  58  44 E9        30.13S HX  81
PITTSFIELD*    SUNNY     81  59  46 E7        30.12F HX  82
$$

ILZ028>032-037-038-041>044-048-051>054-059>061-102300-
CENTRAL ILLINOIS

CITY           SKY/WX    TMP DP  RH WIND       PRES   REMARKS
PONTIAC        MOSUNNY   81  55  41 E5        30.14S HX  80
BLOOMINGTON    MOSUNNY   79  53  40 NE7       30.16S
DECATUR        MOSUNNY   79  53  40 E6        30.14S
PEORIA         CLOUDY    81  59  47 S6        30.13S HX  81
LACON*         MOSUNNY   76  58  52 E3        30.13R
LINCOLN*       SUNNY     81  53  38 E5        30.11S HX  80
SPRINGFIELD    SUNNY     82  58  43 NE12      30.13S HX  82
TAYLORVILLE    SUNNY     79  54  41 NE6       30.13S
$$

ILZ033-039-045-046-055>057-062-063-102300-
EAST-CENTRAL ILLINOIS

CITY           SKY/WX    TMP DP  RH WIND       PRES   REMARKS
CHAMPAIGN      MOSUNNY   79  54  41 E8        30.14F
RANTOUL*       SUNNY     80  49  33 E5        30.15S HX  80
MATTOON        SUNNY     79  52  38 NE10      30.12S
PARIS*         SUNNY     79  55  43 NE7       30.14S HX  80
$$

ILZ079-100>102-102300-
SOUTHWEST ILLINOIS

CITY           SKY/WX    TMP DP  RH WIND       PRES   REMARKS
ALTON          MOSUNNY   82  57  42 E7        30.11S HX  82
BELLEVILLE     MOSUNNY   83  55  38 E6        30.09S HX  82
CAHOKIA*       MOSUNNY   82  56  40 CALM      30.09S HX  82
SPARTA*        PTSUNNY   79  55  44 E5        30.10S
$$

ILZ064>066-069>071-074>076-080>082-084>086-088>090-092>094-102300-
SOUTH-CENTRAL ILLINOIS

CITY           SKY/WX    TMP DP  RH WIND       PRES   REMARKS
CARBONDALE     PTSUNNY   82  58  43 CALM      30.08F HX  82
CAIRO*         PTSUNNY   87  64  46 N8        30.06F HX  88
MARION         PTSUNNY   81  61  50 N6        30.09F HX  81
MT. VERNON     SUNNY     82  55  39 CALM      30.10S HX  82
CENTRALIA*     SUNNY     90  49  23 E6        30.10S HX  87
SALEM*         SUNNY     84  53  34 NE5       30.10F HX  82
METROPOLIS*    PTSUNNY   83  60  45 N5        30.06F HX  83
$$

ILZ067-068-072-073-078-083-087-091-102300-
SOUTHEAST ILLINOIS

CITY           SKY/WX    TMP DP  RH WIND       PRES   REMARKS
FLORA*         SUNNY     81  53  37 N5        30.10S HX  80
HARRISBURG*    PTSUNNY   81  59  47 CALM      30.09F HX  82
ROBINSON*      MOSUNNY   83  57  41 NE7       30.11F HX  82
CARMI*         MOSUNNY   85  60  42 CALM      30.07F HX  85
$$

ABBREVIATIONS USED IN REMARKS
   TC - TEMPERATURE IN CELSIUS
  WCI - WIND CHILL INDEX
   HX - HEAT INDEX
  VSB - VISIBILITY
$$




USA.gov is the U.S. government's official web portal to all federal, state and local government web resources and services.